RH
50 49 49 48 52 53 61 72 88 90 81 62 85 91 86 84 85 88 93 95 94 92 85 85 86 90 88 88 86 82 83 82 81 82 82 83 81 78
51 54 52 51 50 51 62 68 70 88 92 74 74 76 80 82 80 82 83 88 97 93 91 91 88 96 97 94 90 86 86 85 84 83 81 82 82 80
54 56 57 51 52 52 55 59 73 75 88 73 70 74 82 84 86 83 80 83 91 96 94 94 93 96 98 95 94 94 90 86 85 84 81 79 79 75
58 57 60 52 56 56 64 70 67 64 79 83 75 78 85 84 88 90 82 76 82 92 96 96 94 96 98 95 95 95 92 87 86 85 84 81 79 75
62 63 59 58 60 55 54 58 60 56 68 79 79 79 86 83 88 87 86 84 80 88 97 95 96 96 96 96 97 97 95 90 88 86 85 84 82 77
64 64 62 60 61 62 56 56 51 60 63 76 74 76 82 81 90 92 88 87 88 75 93 92 94 98 97 95 94 95 95 91 89 86 86 87 85 81
68 66 66 66 69 66 55 55 54 61 72 76 76 69 78 82 93 90 96 89 85 86 92 93 93 96 97 98 95 95 94 92 91 89 89 89 89 86
60 57 56 65 67 75 77 78 69 64 70 74 74 72 67 76 80 96 96 97 94 92 94 96 93 92 89 94 94 97 97 94 92 92 91 90 88 88
78 62 57 55 66 62 68 70 78 78 78 76 80 77 72 68 77 87 95 97 98 88 93 92 90 95 85 86 95 96 97 95 95 93 92 94 93 92
62 67 71 60 58 65 64 66 65 60 62 64 74 73 73 72 80 87 93 96 93 84 91 95 89 90 89 84 97 98 98 96 96 96 96 96 96 93
62 61 60 60 65 67 75 76 63 64 55 63 64 64 65 65 66 77 88 93 91 83 90 95 87 91 95 94 97 98 98 98 97 98 97 97 96 93
74 64 72 69 72 70 74 84 78 65 62 62 61 62 62 61 67 77 86 93 94 97 90 99 99 98 100 100 97 97 96 98 98 98 97 96 96 92
94 80 78 81 82 77 85 82 74 59 63 63 63 63 61 57 62 64 72 80 87 95 88 97 99 97 100 100 100 98 97 97 97 97 98 97 97 92
90 88 97 96 89 83 85 90 95 87 75 75 76 73 71 68 66 66 68 73 81 83 82 93 100 100 100 100 100 100 98 96 97 97 97 96 98 96
85 87 90 88 82 82 92 88 75 83 89 95 96 94 84 82 76 78 72 73 78 88 85 92 99 100 100 100 100 100 100 99 98 97 97 98 97 97
80 80 86 88 91 91 85 92 83 80 78 78 78 87 96 90 84 82 91 89 96 94 97 97 98 99 100 100 100 99 100 100 98 98 98 97 95 93
80 81 84 83 85 84 86 87 92 96 98 97 93 89 83 82 83 83 86 88 89 92 94 100 100 98 99 100 100 100 100 100 99 98 99 98 98 96
79 88 90 90 89 88 87 88 88 89 90 91 92 90 88 95 94 89 85 86 88 87 92 94 100 100 100 97 99 98 100 100 100 100 98 100 99 98
84 88 90 91 91 91 89 89 88 86 85 87 86 85 87 88 86 90 90 96 90 87 89 96 100 100 100 98 99 97 99 100 100 100 99 97 98 98
78 88 89 90 91 92 92 92 90 90 89 87 87 87 88 89 90 90 87 90 88 88 93 95 94 98 99 98 100 100 100 100 100 100 100 99 99 97
80 84 88 90 91 92 92 93 94 93 93 94 91 90 89 89 89 86 85 83 83 87 92 90 87 79 100 100 100 100 100 99 95 100 100 100 98 100
80 84 86 89 92 94 94 94 94 94 95 94 94 93 91 89 90 87 83 88 85 83 88 85 90 92 100 100 95 100 100 100 99 98 97 96 100 100
84 85 88 89 91 93 94 94 94 94 95 96 96 94 94 94 84 83 83 82 86 86 85 86 90 88 92 97 97 100 100 99 99 99 99 97 96 96
Wind_Speed
14 15 13 12 12 12 10 10 10 12 14 8 5 3 11 11 17 14 13 19 33 34 33 32 30 30 36 33 31 29 28 28 26 26 25 26 25 25
12 15 15 12 13 12 11 11 12 12 15 9 9 13 13 11 16 14 16 22 27 33 31 28 30 28 24 31 28 26 26 27 27 27 28 26 26 25
16 15 17 17 12 12 12 11 12 11 14 12 14 10 13 14 12 12 14 13 13 28 26 26 27 29 28 30 27 25 26 27 28 28 28 28 27 25
17 18 17 12 17 15 11 15 14 14 12 19 12 12 11 10 10 14 12 12 12 20 28 26 28 28 27 32 31 29 30 30 28 28 29 28 27 27
17 17 17 17 16 13 15 13 12 12 12 13 12 10 9 9 11 9 12 13 10 24 29 30 26 27 30 32 28 28 27 28 29 29 28 27 27 27
17 17 17 17 17 16 15 17 14 13 13 11 12 10 8 7 9 9 10 7 11 12 18 24 26 26 29 32 34 34 33 32 29 30 29 26 25 26
17 17 17 20 24 21 12 15 15 13 10 10 12 11 8 6 7 5 8 11 12 11 10 14 14 14 16 26 26 33 32 34 33 30 28 27 25 25
16 17 16 21 21 27 28 28 22 14 14 10 11 12 12 8 7 3 5 7 7 2 11 10 9 15 15 15 29 32 33 36 32 32 32 30 29 29
17 16 15 13 20 17 22 27 28 30 29 17 16 13 14 12 10 8 4 5 8 9 10 8 6 12 16 16 27 31 34 36 34 34 32 30 27 27
17 16 16 17 16 17 16 17 17 17 17 13 16 14 12 10 10 7 7 5 10 7 8 6 6 11 14 15 25 31 34 35 34 36 33 31 30 28
15 16 17 16 21 25 16 17 17 15 18 24 25 25 24 26 20 10 9 9 9 7 2 4 6 11 12 14 14 31 34 34 34 33 35 32 31 31
13 15 22 20 24 25 16 15 16 15 12 14 12 16 21 19 25 15 9 10 7 5 5 6 2 6 7 0 12 15 18 34 33 34 34 33 30 15
8 10 10 22 25 26 25 15 16 16 16 14 12 10 10 12 10 11 14 11 10 10 5 7 5 8 3 6 2 11 13 13 17 18 30 31 30 25
8 7 7 17 21 23 20 22 24 23 12 11 11 10 10 9 10 10 11 11 10 12 7 6 4 4 7 7 5 4 12 12 13 14 16 22 27 30
7 12 16 15 14 11 15 25 23 11 10 10 10 11 9 8 11 8 8 11 11 7 6 9 10 8 8 5 4 3 4 10 12 11 12 12 13 12
11 8 10 10 10 9 8 9 12 10 10 10 9 7 6 8 8 6 6 6 5 5 5 8 11 11 6 8 6 5 3 3 10 11 10 11 13 14
10 6 6 6 6 6 6 6 6 4 3 4 6 7 7 8 8 7 7 7 8 7 7 4 6 10 10 8 5 2 4 1 6 11 10 10 11 14
7 6 6 7 7 7 7 6 5 6 4 4 5 6 7 6 7 7 7 8 10 8 8 7 5 5 6 8 13 9 3 6 1 5 10 11 8 9
6 7 7 7 7 7 7 6 6 6 7 6 7 7 7 7 10 9 9 8 9 10 9 7 6 7 8 10 3 18 9 4 2 2 6 9 10 9
8 8 8 8 8 8 7 7 7 7 6 7 7 7 7 8 8 9 9 10 11 10 8 7 9 10 12 9 4 3 11 7 7 7 3 3 4 14
9 8 8 8 8 8 8 8 8 8 8 7 8 8 8 9 9 10 10 17 16 9 11 11 11 15 4 2 5 4 2 4 8 8 6 4 3 1
9 9 9 9 8 8 8 8 8 8 8 8 8 8 9 9 10 11 10 10 11 12 11 9 7 8 8 10 12 6 4 2 6 10 8 7 6 10
9 9 9 8 8 8 8 8 9 9 9 9 9 9 9 10 10 11 12 11 12 12 11 11 8 8 10 11 14 7 8 8 5 4 3 5 3 7
Wind_Direction
265 266 264 265 262 264 262 262 274 284 291 280 307 300 2 342 337 333 327 222 200 209 213 211 207 210 201 196 198 197 196 195 194 194 198 195 199 203
261 261 263 261 263 262 258 251 254 259 275 292 277 299 318 322 313 332 312 305 225 204 208 205 204 196 197 195 196 192 192 192 190 194 197 194 197 199
262 260 261 261 260 260 261 263 259 261 269 276 285 293 296 305 311 312 298 315 306 205 207 207 200 195 190 192 190 189 186 192 192 193 196 199 199 198
259 255 254 256 255 249 251 252 254 261 267 280 283 291 286 300 294 295 326 294 288 249 204 202 208 193 187 194 190 193 187 188 190 193 194 199 200 199
257 259 260 257 257 256 257 257 258 261 263 270 277 288 299 305 296 298 297 312 292 312 203 201 201 198 193 193 192 188 189 190 190 189 195 194 196 195
254 254 255 252 252 253 254 256 257 257 258 266 275 273 271 287 283 291 305 316 304 312 243 198 196 195 201 198 198 197 195 188 189 191 190 191 189 192
252 249 248 248 249 247 252 252 253 257 260 262 272 274 271 282 288 313 307 319 310 301 256 198 195 191 199 201 203 196 191 192 188 192 189 189 185 189
247 245 244 250 252 251 248 248 250 256 254 257 267 270 270 283 289 291 327 304 320 324 360 330 230 205 200 202 204 197 190 193 190 185 187 192 192 188
242 245 244 239 242 241 250 251 248 248 246 257 266 272 286 287 290 288 259 260 277 304 322 298 335 229 206 199 197 192 194 194 190 193 190 189 191 190
253 247 243 247 243 241 242 247 249 250 250 253 255 262 268 279 282 297 294 288 284 281 262 273 315 316 211 198 185 185 193 195 196 191 190 191 194 196
248 248 246 247 247 245 240 244 247 246 250 249 254 260 262 262 254 263 269 279 287 287 320 318 299 299 230 187 180 181 187 193 193 191 192 190 193 195
256 249 247 242 243 245 243 241 248 248 246 249 252 252 250 251 252 243 250 245 246 288 217 225 350 4 300 220 173 181 187 192 194 195 194 191 190 197
260 249 241 246 249 246 236 228 236 245 246 245 248 250 240 237 236 228 230 234 236 240 280 349 319 312 255 319 16 176 189 187 195 194 191 188 184 192
330 322 299 273 254 245 245 247 239 237 241 244 240 243 250 242 222 225 228 232 238 240 242 259 288 319 296 333 302 335 188 183 187 194 195 192 192 198
326 323 319 318 312 282 285 244 241 234 238 234 229 235 240 256 264 253 240 236 242 255 263 245 245 256 252 245 270 287 215 185 185 181 191 183 185 198
340 327 327 329 320 312 306 315 236 230 231 238 244 243 240 235 244 252 241 241 255 264 250 242 248 270 253 241 244 261 270 213 172 182 183 193 190 199
342 333 335 341 339 338 333 332 335 336 289 253 246 246 242 240 239 242 242 256 255 254 258 245 226 232 245 272 289 225 271 348 221 171 173 186 195 193
344 341 338 339 337 335 332 330 325 318 308 290 268 261 255 259 256 247 240 228 245 246 243 246 228 221 218 246 239 263 252 254 236 207 185 188 191 197
347 340 334 334 331 328 325 322 315 311 306 281 272 264 262 261 262 251 242 237 230 239 233 230 231 228 241 230 191 207 225 196 157 192 212 197 184 194
348 334 329 328 325 323 320 315 310 302 294 283 271 262 257 257 256 256 258 243 230 227 234 222 225 231 228 246 221 191 200 179 183 196 137 84 23 94
337 331 326 321 319 316 313 309 303 296 293 288 277 266 257 249 247 246 249 259 260 245 234 221 230 235 241 223 256 203 224 254 174 161 140 110 112 125
329 326 322 317 314 311 309 306 301 296 292 285 276 269 262 257 255 250 241 244 244 247 244 244 214 208 222 229 238 223 162 90 81 105 63 88 173 178
326 323 318 313 309 308 306 304 301 297 289 281 279 273 264 258 254 254 249 241 236 244 243 235 226 216 225 233 220 225 165 153 157 132 46 31 5 110